Sussex, NJ

2:19 AM EDT on June 24, 2017 (GMT -0400)
Sussex

Weather History for KFWN - June, 2013

Change the Weather History Date:

Tuesday, June 4, 2013

  Actual Average Record
Temperature  
Mean Temperature 60 °F -  
Max Temperature 73 °F 74 °F 86 °F (1952)
Min Temperature 46 °F 49 °F 38 °F (1965)
Degree Days  
Heating Degree Days 6    
Growing Degree Days 10 (Base 50)    
Moisture  
Dew Point 42 °F    
Average Humidity 55    
Maximum Humidity 90    
Minimum Humidity 29    
Precipitation  
Precipitation 0.00 in - - ()
Sea Level Pressure  
Sea Level Pressure 30.04 in    
Wind  
Wind Speed 4 mph (NNW)    
Max Wind Speed 13 mph    
Max Gust Speed 17 mph    
Visibility 10 miles    
Events      
Averages and records for this station are not official NWS values.
T = Trace of Precipitation, MM = Missing Value Source: NWS Daily Summary

Daily Weather History Graph

Daily Weather History Graph

Search for Another Location

Airport or City:

Trip Planner

Search our weather history database for the weather conditions in past years. The results will help you decide how hot, cold, wet, or windy it might be!

Date:

Astronomy

Jun. 04, 2013 Rise Set
Actual Time 5:26 AM EDT 8:27 PM EDT
Civil Twilight 4:53 AM EDT 9:00 PM EDT
Nautical Twilight 4:11 AM EDT 9:42 PM EDT
Astronomical Twilight 3:21 AM EDT 10:32 PM EDT
Moon 2:57 AM EDT (6/4) 4:52 PM EDT (6/4)
Length of Visible Light 16h 07m
Length of Day
15h 00m
Waning Crescent, 14% of the Moon is Illuminated
Jun 4
Waning Crescent
Jun 8
New
Jun 16
First Quarter
Jun 23
Full
Jun 30
Last Quarter

Hourly Weather History & Observations

Time (EDT) Temp. Dew Point Humidity Pressure Visibility Wind Dir Wind Speed Gust Speed Precip Events Conditions
12:53 AM 55.0 °F 44.1 °F 67% 29.95 in 10.0 mi Calm Calm - N/A   Clear
1:53 AM 55.9 °F 43.0 °F 62% 29.96 in 10.0 mi Variable 5.8 mph - N/A   Clear
2:53 AM 55.0 °F 43.0 °F 64% 29.97 in 10.0 mi Variable 6.9 mph - N/A   Clear
3:53 AM 50.0 °F 43.0 °F 77% 29.98 in 10.0 mi Calm Calm - N/A   Clear
4:53 AM 46.9 °F 43.0 °F 86% 29.99 in 10.0 mi Calm Calm - N/A   Clear
5:53 AM 46.9 °F 44.1 °F 90% 30.01 in 10.0 mi Calm Calm - N/A   Clear
6:53 AM 54.0 °F 45.0 °F 72% 30.02 in 10.0 mi Variable 5.8 mph - N/A   Clear
7:53 AM 55.9 °F 44.1 °F 64% 30.03 in 10.0 mi North 8.1 mph 17.3 mph N/A   Clear
8:53 AM 57.9 °F 42.1 °F 56% 30.04 in 10.0 mi WNW 11.5 mph 17.3 mph N/A   Clear
9:53 AM 61.0 °F 43.0 °F 52% 30.05 in 10.0 mi North 9.2 mph 16.1 mph N/A   Clear
10:53 AM 64.0 °F 43.0 °F 46% 30.05 in 10.0 mi North 10.4 mph 17.3 mph N/A   Clear
11:53 AM 66.0 °F 42.1 °F 42% 30.06 in 10.0 mi NW 8.1 mph 17.3 mph N/A   Clear
12:53 PM 68.0 °F 42.1 °F 39% 30.05 in 10.0 mi Variable 6.9 mph 17.3 mph N/A   Clear
1:53 PM 70.0 °F 43.0 °F 38% 30.03 in 10.0 mi North 9.2 mph - N/A   Clear
2:53 PM 72.0 °F 42.1 °F 34% 30.02 in 10.0 mi WNW 12.7 mph 17.3 mph N/A   Clear
3:53 PM 73.0 °F 39.9 °F 30% 30.01 in 10.0 mi NW 9.2 mph - N/A   Clear
4:53 PM 73.0 °F 41.0 °F 31% 30.02 in 10.0 mi Variable 4.6 mph - N/A   Clear
5:53 PM 73.0 °F 39.0 °F 29% 30.03 in 10.0 mi NW 8.1 mph - N/A   Clear
6:53 PM 71.1 °F 39.0 °F 31% 30.04 in 10.0 mi Variable 4.6 mph - N/A   Clear
7:53 PM 66.9 °F 39.0 °F 36% 30.06 in 10.0 mi Calm Calm - N/A   Clear
8:53 PM 62.1 °F 42.1 °F 48% 30.09 in 10.0 mi Calm Calm - N/A   Clear
9:53 PM 54.0 °F 43.0 °F 66% 30.12 in 10.0 mi Calm Calm - N/A   Clear
10:53 PM 50.0 °F 44.1 °F 80% 30.14 in 10.0 mi Calm Calm - N/A   Clear
11:53 PM 50.0 °F 43.0 °F 77% 30.14 in 10.0 mi Calm Calm - N/A   Clear